This is the latest recevied weather packets stored in our database for station/object MB7UUE. If no packets are shown the sender has not sent any weather packets the latest 10 day(s).
| Time | Temp. | Humidity | Pressure | Rain* | Wind** | Luminosity | Snow |
|---|---|---|---|---|---|---|---|
| 1787627810 | 16.11° C | 76% | 1013.2 hPa | 0 mm | - | - | - |
| 1787626670 | 16.11° C | 76% | 1013.2 hPa | 0 mm | - | - | - |
| 1787625530 | 16.11° C | 76% | 1013.2 hPa | 0 mm | - | - | - |
| 1787624390 | 16.11° C | 76% | 1013.2 hPa | 0 mm | - | - | - |
| 1787623249 | 16.11° C | 77% | 1013.3 hPa | 0 mm | - | - | - |
| 1787622109 | 16.11° C | 77% | 1013.5 hPa | 0 mm | - | - | - |
| 1787620970 | 16.11° C | 77% | 1013.8 hPa | 0 mm | - | - | - |
| 1787619831 | 16.11° C | 76% | 1013.8 hPa | 0 mm | - | - | - |
| 1787618691 | 16.11° C | 72% | 1013.9 hPa | 0 mm | - | - | - |
| 1787617551 | 16.11° C | 72% | 1014 hPa | 0 mm | - | - | - |
| 1787616410 | 16.11° C | 72% | 1014.2 hPa | 0 mm | - | - | - |
| 1787615271 | 16.11° C | 72% | 1014.4 hPa | 0 mm | - | - | - |
| 1787614129 | 16.11° C | 72% | 1014.4 hPa | 0 mm | - | - | - |
| 1787612991 | 16.11° C | 72% | 1014.1 hPa | 0 mm | - | - | - |
| 1787611849 | 16.67° C | 72% | 1014.3 hPa | 0 mm | - | - | - |
| 1787610709 | 16.67° C | 72% | 1014.6 hPa | 0 mm | - | - | - |
| 1787609569 | 16.67° C | 69% | 1014.9 hPa | 0 mm | - | - | - |
| 1787608429 | 16.67° C | 68% | 1014.9 hPa | 0 mm | - | - | - |
| 1787607288 | 16.67° C | 68% | 1015.1 hPa | 0 mm | - | - | - |
| 1787606148 | 17.22° C | 60% | 1015.4 hPa | 0 mm | - | - | - |
| 1787605008 | 17.22° C | 60% | 1015.5 hPa | 0 mm | - | - | - |
| 1787603869 | 17.22° C | 60% | 1015.6 hPa | 0 mm | - | - | - |
| 1787602728 | 17.78° C | 60% | 1015.4 hPa | 0 mm | - | - | - |
| 1787601588 | 17.78° C | 60% | 1015.4 hPa | 0 mm | - | - | - |
| 1787600449 | 17.78° C | 60% | 1015.4 hPa | 0 mm | - | - | - |
* Rain latest hour (hover to see other rain measurements)
** Current wind speed in m/s (hover to see current wind gust speed)